Starlink 5597

operational
NORAD ID: 55403 Int'l Des: 2023-014 Owner: SPXS Country: US Constellation: starlink
LEOCIRCULAR

Starlink 5597について

説明を読み込み中...

リアルタイム位置

3D地球を読み込み中...

次回通過

高度履歴

Altitude vs Time

uPlot chart will show altitude changes over time

軌道要素

1 55403U 23014N 25347.95602573 -.00003935 00000-0 -32212-3 0 9990
2 55403 69.9988 280.6055 0003002 266.9750 93.1066 14.98340114159212
Epoch: Dec 13, 2025 • Age: 15 hours

現在のステータス

高度 575.3 km
速度 7.57 km/s
衛星直下点 -7.56°S, 165.24°E
打ち上げ日 Jan 31, 2023
運用期間 2.8 years
タイプ internet

技術仕様

分類 Payload
質量 305.00 kg
乾燥質量 290.00 kg
総質量 305.00 kg
長さ 0.20 m
直径 2.80 m
スパン 9.00 m
形状 Box + pan
製造者 SPXS
バスタイプ Starlink
フェーズステータス In Orbit
所有者/国 SPXS/US

大規模コンステレーション

Loading constellations...